PBO Station Position Time Series. Reference Frame : NAM14
Format Version,1.1.0
4-character ID,NCGO
Station name,Goldsboro
Begin Date, 2008-07-02
End Date, 2019-10-07
Release Date, 2019-10-08
Reference position, 35.4213600458 North Latitude, -78.0584978564 East Longitude, 12.68888 meters elevation,
Date, North (mm), East (mm), Vertical (mm), North Std. Deviation (mm), East Std. Deviation (mm),              Vertical Std. Deviation (mm), Quality,
2008-07-02,0.00, 0.00, 0.00, 1.87, 1.76, 7.35, repro,
2008-07-03,-1.01, 1.30, -4.65, 1.87, 1.76, 7.33, repro,
2008-07-04,-0.68, 2.97, -5.66, 1.90, 1.76, 7.44, repro,
2008-07-05,-0.46, 1.02, -0.19, 1.89, 1.76, 7.54, repro,
2008-07-06,-1.02, 3.91, -6.18, 1.89, 1.75, 7.42, repro,
2008-07-07,-0.80, 0.97, 2.09, 1.91, 1.74, 7.61, repro,
2008-07-08,-0.33, 2.40, -11.89, 1.87, 1.74, 7.43, repro,
2008-07-09,0.80, 2.30, 1.74, 1.90, 1.81, 7.50, repro,
2008-07-10,-1.65, 1.86, 6.26, 1.96, 1.92, 7.78, repro,
2008-07-11,-0.37, 1.13, 1.44, 1.98, 1.94, 7.93, repro,
2008-07-12,-0.59, 0.22, -5.38, 1.87, 1.72, 7.30, repro,
2008-07-13,-0.57, 1.17, 4.93, 1.95, 1.76, 7.79, repro,
2008-07-14,-1.52, 1.30, 10.32, 1.85, 1.73, 7.37, repro,
2008-07-15,-2.16, 0.75, 0.87, 1.84, 1.72, 7.28, repro,
2008-07-16,-1.29, 1.35, -2.45, 1.84, 1.73, 7.32, repro,
2008-07-17,-1.91, 0.10, 0.92, 1.86, 1.80, 7.38, repro,
2008-07-18,0.35, 4.22, 0.98, 1.92, 1.88, 7.77, repro,
2008-07-19,-0.80, 1.87, -6.37, 2.11, 1.96, 8.55, repro,
2008-07-20,-0.52, 0.61, -1.89, 1.86, 1.74, 7.41, repro,
2008-07-21,0.22, 0.86, -4.28, 2.04, 1.83, 8.03, repro,
2008-07-22,3.56, 2.60, -1.26, 2.10, 1.90, 8.14, repro,
2008-07-23,-0.16, 1.84, 6.05, 2.00, 1.90, 8.01, repro,
2008-07-24,-0.86, -0.36, -6.85, 1.91, 1.77, 7.60, repro,
2008-07-25,-4.31, 0.77, 2.82, 1.88, 1.73, 7.40, repro,
2008-07-26,-0.89, 2.33, -2.80, 1.84, 1.71, 7.32, repro,
2008-07-27,-2.25, 1.18, 3.89, 1.86, 1.73, 7.44, repro,
2008-07-28,-0.18, 1.31, -4.94, 2.36, 2.48, 9.32, repro,
2008-07-29,-1.99, 0.96, 9.68, 1.86, 1.79, 7.40, repro,
2008-07-30,0.42, -0.63, 2.76, 1.88, 1.84, 7.57, repro,
2008-07-31,0.13, 2.39, 14.32, 1.97, 1.82, 7.79, repro,
2008-08-01,-3.02, 1.79, -1.70, 1.85, 1.73, 7.37, repro,
2008-08-02,-0.99, 2.92, 5.27, 1.89, 1.75, 7.55, repro,
2008-08-03,-0.15, 3.57, -2.98, 2.06, 2.17, 8.44, repro,
2008-08-04,-0.43, 1.04, 0.76, 2.06, 1.86, 8.04, repro,
2008-08-05,-2.24, 4.27, 5.01, 1.85, 1.72, 7.35, repro,
2008-08-06,-0.11, 1.89, 2.90, 1.87, 1.78, 7.57, repro,
2008-08-07,0.23, 1.36, 13.55, 1.95, 1.81, 7.93, repro,
2008-08-08,0.49, 3.41, 7.54, 1.93, 1.81, 7.88, repro,
2008-08-09,1.46, 3.96, 10.29, 2.02, 1.90, 8.09, repro,
2008-08-10,-2.90, 4.51, 0.57, 1.88, 1.77, 7.55, repro,
2008-08-11,-0.06, -0.93, -3.26, 2.00, 2.02, 8.20, repro,
2008-08-12,-0.68, 1.55, 3.24, 1.85, 1.76, 7.43, repro,
2008-08-13,-2.19, 3.44, 7.59, 1.86, 1.77, 7.53, repro,
2008-08-14,-1.24, 1.96, 4.02, 1.85, 1.78, 7.50, repro,
2008-08-15,-3.23, 3.41, 0.32, 1.97, 1.88, 7.91, repro,
2008-08-16,-1.00, 3.38, -5.59, 1.95, 1.90, 7.81, repro,
2008-08-17,-1.10, 1.42, -4.17, 1.87, 1.77, 7.51, repro,
2008-08-18,-2.01, 2.39, -0.13, 1.84, 1.76, 7.39, repro,
2008-08-19,-2.42, 0.67, 1.42, 1.89, 1.85, 7.73, repro,
2008-08-20,-1.58, 0.55, 8.11, 2.08, 1.92, 8.20, repro,
2008-08-21,-0.33, 2.21, -7.62, 1.89, 1.82, 7.65, repro,
2008-08-22,-1.18, 1.71, 6.67, 1.89, 1.81, 7.64, repro,
2008-08-23,0.36, 0.61, 6.07, 1.87, 1.78, 7.48, repro,
2008-08-24,-2.37, 0.47, 0.79, 1.89, 1.82, 7.64, repro,
2008-08-25,-0.73, 2.77, 7.61, 1.91, 1.83, 7.65, repro,
2008-08-26,-0.62, 3.20, 3.85, 1.88, 1.81, 7.58, repro,
2008-08-27,-1.84, 3.40, 9.68, 2.00, 1.88, 8.00, repro,
2008-08-28,-0.68, -0.76, 5.89, 2.77, 2.58, 10.93, repro,
2008-08-29,-0.85, 0.82, -5.91, 2.09, 2.01, 8.58, repro,
2008-08-30,-2.20, 0.83, -2.46, 1.89, 1.83, 7.64, repro,
2008-08-31,-1.33, 2.26, -9.76, 2.21, 2.19, 9.39, repro,
2008-09-01,-2.23, 1.83, 1.53, 1.94, 1.86, 7.80, repro,
2008-09-02,0.23, 0.99, -5.51, 1.93, 1.83, 7.65, repro,
2008-09-03,-1.99, 0.85, 2.37, 1.90, 1.82, 7.62, repro,
2008-09-04,-2.21, 1.74, 2.14, 2.08, 1.93, 8.16, repro,
2008-09-05,1.29, -2.97, -3.68, 2.28, 2.15, 9.25, repro,
2008-09-08,-0.20, 0.89, -6.41, 2.55, 2.56, 10.99, repro,
2008-09-09,-0.79, 1.58, -9.07, 2.40, 2.22, 9.70, repro,
2008-09-10,-0.99, 1.47, -2.86, 2.04, 1.88, 8.03, repro,
2008-09-11,-1.53, 1.26, -4.84, 1.94, 1.86, 7.81, repro,
2008-09-12,-1.11, 1.90, -1.13, 2.11, 1.90, 8.08, repro,
2008-09-13,-1.06, 1.70, 0.16, 2.03, 1.86, 7.98, repro,
2008-09-14,-1.82, 2.44, -2.35, 1.95, 1.85, 7.76, repro,
2008-09-15,-0.74, 0.87, -3.01, 1.94, 1.85, 7.74, repro,
2008-09-16,-0.00, 0.90, 9.79, 1.93, 1.84, 7.78, repro,
2008-09-17,-2.16, 2.56, -10.31, 1.93, 1.86, 7.79, repro,
2008-09-18,-1.13, 0.39, -6.27, 1.92, 1.85, 7.73, repro,
2008-09-19,-2.71, 1.46, -8.04, 1.92, 1.88, 7.85, repro,
2008-09-20,-1.81, 1.21, -6.13, 1.86, 1.79, 7.49, repro,
2008-09-21,-3.10, 0.75, -1.10, 1.89, 1.81, 7.57, repro,
2008-09-22,-3.38, 0.31, -11.06, 1.84, 1.78, 7.44, repro,
2008-09-23,-2.89, 0.66, 1.24, 1.85, 1.77, 7.45, repro,
2008-09-24,-2.33, 1.06, -0.02, 1.97, 1.81, 7.73, repro,
2008-09-25,-3.40, 3.98, -17.40, 2.28, 2.25, 9.36, repro,
2008-09-26,-1.86, 1.35, 2.97, 1.94, 1.86, 7.78, repro,
2008-09-27,-2.07, -0.43, 0.81, 1.96, 1.81, 7.70, repro,
2008-09-28,-0.58, -2.10, -16.83, 5.13, 4.23, 18.55, repro,
2008-09-29,-3.69, 0.86, -6.34, 2.39, 2.26, 9.76, repro,
2008-09-30,-1.52, 0.08, -1.83, 1.98, 1.85, 7.91, repro,
2008-10-01,-1.91, 1.38, 8.13, 1.91, 1.81, 7.68, repro,
2008-10-02,-1.89, 1.86, 2.35, 1.97, 1.79, 7.67, repro,
2008-10-03,-2.62, 1.21, -3.16, 1.96, 1.78, 7.64, repro,
2008-10-04,-1.05, -0.08, -6.34, 1.85, 1.75, 7.45, repro,
2008-10-05,-1.77, 0.95, -10.20, 1.86, 1.77, 7.54, repro,
2008-10-06,-2.13, 1.45, -4.81, 1.85, 1.75, 7.45, repro,
2008-10-07,-0.48, 0.37, -1.93, 1.88, 1.77, 7.42, repro,
2008-10-08,-2.27, 0.98, -1.20, 1.87, 1.74, 7.41, repro,
2008-10-09,-1.95, 0.27, 2.95, 1.83, 1.72, 7.38, repro,
2008-10-10,-1.05, -0.32, -0.57, 1.82, 1.73, 7.36, repro,
2008-10-11,-2.07, 0.87, -13.37, 1.86, 1.75, 7.50, repro,
2008-10-12,-0.45, -2.76, 0.33, 1.85, 1.73, 7.41, repro,
2008-10-13,-2.11, 1.10, -7.83, 1.82, 1.69, 7.19, repro,
2008-10-14,-0.70, 0.42, -4.67, 1.83, 1.72, 7.34, repro,
2008-10-15,-1.35, 0.71, -7.95, 1.85, 1.72, 7.39, repro,
2008-10-16,-1.04, 0.36, -7.29, 1.91, 1.82, 7.64, repro,
2008-10-17,-0.51, 1.05, -1.86, 1.84, 1.71, 7.33, repro,
2008-10-18,-1.66, 1.57, -1.50, 1.90, 1.73, 7.45, repro,
2008-10-19,-2.11, -0.11, 3.39, 1.82, 1.72, 7.32, repro,
2008-10-20,-0.80, -0.04, -7.39, 1.83, 1.72, 7.34, repro,
2008-10-21,-1.69, -0.87, -9.16, 1.81, 1.72, 7.29, repro,
2008-10-22,-1.28, 0.96, -6.42, 1.87, 1.74, 7.41, repro,
2008-10-23,-2.42, -1.04, -9.23, 1.87, 1.73, 7.38, repro,
2008-10-24,-3.90, -0.59, 2.34, 1.87, 1.75, 7.41, repro,
2008-10-25,-2.80, 1.46, -6.57, 1.85, 1.73, 7.37, repro,
2008-10-26,-3.11, -0.08, 3.54, 1.83, 1.72, 7.33, repro,
2008-10-27,-1.71, 0.61, -6.64, 1.83, 1.71, 7.28, repro,
2008-10-28,-2.22, -0.78, -4.06, 1.85, 1.78, 7.43, repro,
2008-10-29,-3.82, -7.38, -17.64, 8.24, 10.27, 32.17, repro,
2008-10-30,-1.32, -0.89, -6.10, 1.82, 1.72, 7.35, repro,
2008-10-31,-1.99, -0.68, -11.07, 1.85, 1.79, 7.54, repro,
2008-11-01,-3.74, -1.13, -4.29, 1.85, 1.74, 7.39, repro,
2008-11-02,-2.25, -0.03, -2.42, 1.86, 1.74, 7.42, repro,
2008-11-03,-3.32, -1.65, 1.19, 1.92, 1.79, 7.56, repro,
2008-11-04,-3.39, -0.50, -2.60, 1.87, 1.76, 7.49, repro,
2008-11-05,-3.59, 0.45, 0.29, 1.86, 1.76, 7.48, repro,
2008-11-06,-2.75, -0.98, -2.97, 1.83, 1.72, 7.33, repro,
2008-11-07,-2.43, -0.22, -3.03, 1.89, 1.76, 7.46, repro,
2008-11-08,-2.99, 0.11, -1.70, 1.87, 1.74, 7.45, repro,
2008-11-09,-3.79, 1.11, 4.81, 1.88, 1.82, 7.48, repro,
2008-11-10,-2.33, -0.25, 3.13, 1.87, 1.76, 7.48, repro,
2008-11-11,-2.74, -0.69, -5.58, 1.87, 1.81, 7.49, repro,
2008-11-12,-2.79, -1.23, -3.12, 1.85, 1.72, 7.32, repro,
2008-11-13,-3.23, 1.25, 8.19, 1.94, 1.79, 7.61, repro,
2008-11-14,-3.47, -1.27, -2.93, 1.95, 1.80, 7.77, repro,
2008-11-15,-1.94, -0.67, -2.30, 1.96, 1.90, 7.97, repro,
2008-11-16,-3.20, 1.40, 5.75, 1.94, 1.80, 7.63, repro,
2008-11-17,-1.76, -0.88, -4.35, 2.04, 1.87, 7.80, repro,
2008-11-18,-2.20, -0.64, -6.00, 1.84, 1.73, 7.35, repro,
2008-11-19,-2.74, -0.97, -5.46, 1.81, 1.71, 7.25, repro,
2008-11-20,-2.91, -0.50, -7.74, 1.88, 1.76, 7.51, repro,
2008-11-21,-1.36, -0.83, -14.12, 1.89, 1.76, 7.51, repro,
2008-11-22,-1.83, -2.49, -14.28, 1.86, 1.74, 7.35, repro,
2008-11-23,-1.90, -2.45, -11.66, 1.88, 1.77, 7.55, repro,
2008-11-24,-2.74, -2.04, -7.13, 1.88, 1.79, 7.52, repro,
2008-11-25,-2.18, -0.32, -6.13, 1.86, 1.75, 7.36, repro,
2008-11-26,-2.07, -1.32, -3.73, 1.81, 1.70, 7.22, repro,
2008-11-27,-2.42, -1.09, -3.85, 1.83, 1.70, 7.19, repro,
2008-11-28,-3.56, -0.30, -0.25, 1.87, 1.75, 7.42, repro,
2008-11-29,-1.82, 0.12, -1.13, 1.87, 1.76, 7.46, repro,
2008-11-30,-3.13, 1.09, 3.20, 1.83, 1.72, 7.28, repro,
2008-12-01,-4.16, 0.32, 2.62, 1.84, 1.71, 7.30, repro,
2008-12-02,-2.64, -1.45, 1.00, 1.85, 1.75, 7.39, repro,
2008-12-03,-1.83, -1.54, -4.99, 1.88, 1.76, 7.42, repro,
2008-12-04,-2.12, -1.62, -7.60, 1.92, 1.77, 7.61, repro,
2008-12-05,-2.50, -0.12, -3.62, 1.91, 1.85, 7.59, repro,
2008-12-06,-1.12, -1.02, -7.79, 1.86, 1.76, 7.45, repro,
2008-12-07,-2.73, -0.36, -4.64, 1.87, 1.75, 7.42, repro,
2008-12-08,-2.16, -1.83, -5.74, 1.87, 1.78, 7.40, repro,
2008-12-09,-2.31, -1.55, -7.02, 1.89, 1.81, 7.49, repro,
2008-12-10,-4.36, -0.68, -2.11, 1.85, 1.75, 7.35, repro,
2008-12-11,-5.37, 2.25, -6.92, 1.98, 1.84, 7.76, repro,
2008-12-12,-1.09, 0.54, -14.30, 1.89, 1.75, 7.39, repro,
2008-12-13,-3.04, -1.45, -4.50, 1.84, 1.70, 7.24, repro,
2008-12-14,-2.75, -1.58, -6.44, 1.83, 1.71, 7.21, repro,
2008-12-15,-1.63, -1.25, -3.72, 1.84, 1.71, 7.26, repro,
2008-12-16,-3.43, 0.42, -7.79, 1.86, 1.71, 7.32, repro,
2008-12-17,-0.77, 0.74, -16.48, 1.86, 1.74, 7.42, repro,
2008-12-18,-3.77, -1.14, -9.96, 1.85, 1.70, 7.31, repro,
2008-12-19,-5.24, -0.84, -6.95, 1.88, 1.77, 7.40, repro,
2008-12-20,-2.48, 2.85, -8.32, 2.54, 2.27, 9.72, repro,
2008-12-21,-3.41, 0.61, -1.41, 1.85, 1.72, 7.34, repro,
2008-12-22,-2.12, -1.43, -9.95, 1.90, 1.86, 7.71, repro,
2008-12-23,-1.47, -1.56, -5.90, 1.89, 1.78, 7.49, repro,
2008-12-24,-2.25, -2.02, -9.26, 1.86, 1.76, 7.38, repro,
2008-12-25,-2.61, -3.16, -5.90, 1.87, 1.76, 7.40, repro,
2008-12-26,-3.55, -0.75, -4.78, 1.85, 1.71, 7.31, repro,
2008-12-27,-1.65, -1.83, -5.93, 1.85, 1.72, 7.35, repro,
2008-12-28,-1.79, -0.37, -7.37, 1.90, 1.78, 7.57, repro,
2008-12-29,-2.79, 0.85, -0.80, 1.86, 1.71, 7.36, repro,
2008-12-30,-2.06, -1.31, -5.97, 1.91, 1.81, 7.79, repro,
2008-12-31,-2.77, 0.72, -0.13, 1.89, 1.75, 7.46, repro,
2009-01-01,-2.32, -2.93, 0.64, 1.91, 1.86, 7.86, repro,
2009-01-02,-1.48, -1.51, -4.12, 1.91, 1.85, 7.87, repro,
2009-01-04,-0.59, -1.28, -8.37, 1.85, 1.73, 7.47, repro,
2009-01-05,-3.71, -2.09, -2.25, 1.88, 1.78, 7.67, repro,
2009-01-06,-3.36, -0.89, -6.71, 1.88, 1.79, 7.72, repro,
2009-01-07,-1.92, -0.65, 11.02, 1.92, 1.90, 7.98, repro,
2009-01-08,-2.72, -0.90, 2.46, 1.91, 1.78, 7.73, repro,
2009-01-09,-1.69, -1.78, -7.16, 1.95, 1.87, 7.98, repro,
2009-01-10,-3.04, -1.64, -4.02, 1.83, 1.72, 7.38, repro,
2009-01-11,-3.63, -1.40, -8.85, 1.88, 1.79, 7.77, repro,
2009-01-12,-2.90, -1.85, -10.24, 1.97, 1.90, 8.10, repro,
2009-01-13,-0.41, -1.09, -11.86, 2.39, 2.23, 9.83, repro,
2009-01-14,-1.41, -2.30, -15.81, 1.89, 1.87, 7.81, repro,
2009-01-15,-2.58, -1.99, -7.53, 1.83, 1.74, 7.37, repro,
2009-01-16,-1.51, -2.63, -11.96, 1.83, 1.73, 7.38, repro,
2009-01-17,-1.52, -3.36, -14.13, 1.87, 1.80, 7.67, repro,
2009-01-18,-3.31, -2.52, -9.42, 1.87, 1.80, 7.65, repro,
2009-01-19,-2.08, -2.83, -7.71, 1.91, 1.87, 7.85, repro,
2009-01-20,-1.92, -1.80, -11.41, 1.86, 1.80, 7.64, repro,
2009-01-21,-1.32, -1.75, -9.76, 1.88, 1.80, 7.69, repro,
2009-01-22,-1.25, -1.70, -6.73, 2.02, 1.88, 8.17, repro,
2009-01-23,-2.53, -2.70, -13.36, 2.04, 1.94, 8.13, repro,
2009-01-24,-1.73, -1.66, -17.52, 1.90, 1.88, 7.87, repro,
2009-01-25,-2.34, -2.31, -19.21, 1.96, 1.90, 8.09, repro,
2009-01-26,-1.91, -1.38, -17.82, 1.85, 1.75, 7.46, repro,
2009-01-27,-2.50, -2.44, -18.17, 2.12, 1.99, 8.58, repro,
2009-01-28,-2.38, -2.25, -11.63, 1.81, 1.69, 7.21, repro,
2009-01-29,-2.07, -0.77, -11.91, 1.81, 1.69, 7.19, repro,
2009-01-30,-2.27, -2.00, -9.32, 1.82, 1.69, 7.24, repro,
2009-01-31,-2.20, -1.55, -14.73, 1.81, 1.68, 7.21, repro,
2009-02-01,-3.02, -3.14, -12.46, 1.82, 1.67, 7.19, repro,
2009-02-02,-2.36, -2.08, -16.38, 1.81, 1.68, 7.23, repro,
2009-02-03,-2.65, -2.18, -15.00, 1.80, 1.68, 7.20, repro,
2009-02-04,-1.29, -3.17, -16.00, 1.80, 1.68, 7.20, repro,
2009-02-05,-0.68, -3.79, -14.79, 1.83, 1.69, 7.29, repro,
2009-02-06,-1.66, -2.97, -13.59, 1.87, 1.81, 7.58, repro,
2009-02-07,-3.02, -3.11, -15.15, 1.83, 1.69, 7.28, repro,
2009-02-08,-3.31, -3.42, -10.47, 1.82, 1.68, 7.28, repro,
2009-02-09,-2.33, -2.23, -13.79, 1.90, 1.74, 7.47, repro,
2009-02-10,-2.76, -1.59, -8.63, 1.83, 1.69, 7.33, repro,
2009-02-11,-2.54, -1.60, -1.62, 1.88, 1.70, 7.42, repro,
2009-02-12,-0.96, -1.16, -1.56, 1.88, 1.72, 7.47, repro,
2009-02-13,-2.21, -1.64, -2.96, 1.82, 1.68, 7.29, repro,
2009-02-14,-1.53, -1.39, -11.17, 1.81, 1.68, 7.26, repro,
2009-02-15,-3.66, -1.62, -10.38, 1.86, 1.70, 7.40, repro,
2009-02-16,-1.82, -1.61, -9.62, 1.86, 1.70, 7.37, repro,
2009-02-17,-1.72, -2.10, -10.96, 1.85, 1.71, 7.42, repro,
2009-02-18,-2.78, -1.15, -3.55, 1.92, 1.76, 7.47, repro,
2009-02-19,-2.10, -1.89, -5.27, 1.90, 1.74, 7.48, repro,
2009-02-20,-2.21, -0.40, -7.55, 1.90, 1.75, 7.42, repro,
2009-02-21,-3.72, -1.37, -10.68, 2.04, 1.83, 7.90, repro,
2009-02-22,-1.13, -2.34, -13.26, 1.88, 1.70, 7.31, repro,
2009-02-23,-2.29, -1.63, -9.40, 1.91, 1.76, 7.40, repro,
2009-02-24,-2.31, -2.56, -11.10, 1.91, 1.77, 7.49, repro,
2009-02-25,-0.33, -1.07, -10.69, 18.23, 5.83, 188.58, repro,
2009-02-26,-3.82, -1.09, -12.43, 1.96, 1.76, 7.50, repro,
2009-02-27,-4.27, -0.69, -12.71, 2.26, 1.90, 8.51, repro,
2009-02-28,-2.06, -0.63, -6.72, 1.98, 1.76, 7.53, repro,
2009-03-01,-2.35, -0.21, -12.02, 1.96, 1.74, 7.50, repro,
2009-03-02,-2.73, -2.11, -9.34, 1.92, 1.76, 7.39, repro,
2009-03-03,-2.60, -1.74, -11.16, 1.96, 1.84, 7.65, repro,
2009-03-04,-3.17, -0.38, -10.46, 1.88, 1.72, 7.34, repro,
2009-03-05,-1.37, -2.06, -12.81, 2.05, 1.84, 7.82, repro,
2009-03-06,-3.39, -0.21, -4.71, 2.14, 1.89, 8.27, repro,
2009-03-07,-3.62, -0.76, -8.31, 1.88, 1.72, 7.27, repro,
2009-03-08,-1.73, -0.93, -10.83, 1.94, 1.78, 7.44, repro,
2009-03-09,-3.35, -0.85, -6.77, 2.15, 1.88, 8.16, repro,
2009-03-10,-3.51, 2.34, -10.03, 1.89, 1.72, 7.29, repro,
2009-03-11,-1.36, -0.27, -8.10, 1.88, 1.74, 7.26, repro,
2009-03-12,-2.94, 0.36, -7.07, 1.97, 1.79, 7.42, repro,
2009-03-13,-1.80, 0.49, -15.27, 2.09, 1.83, 7.63, repro,
2009-03-14,-2.09, -0.59, -11.13, 2.00, 1.84, 7.71, repro,
2009-03-15,-2.64, -1.00, -7.36, 1.89, 1.81, 7.40, repro,
2009-03-16,-2.30, -1.34, -7.37, 1.95, 1.79, 7.39, repro,
2009-03-17,-3.33, -1.52, -5.05, 1.85, 1.72, 7.15, repro,
2009-03-18,-3.52, -0.80, -8.55, 1.85, 1.70, 7.07, repro,
2009-03-19,-3.62, -1.36, -8.34, 1.85, 1.71, 7.13, repro,
2009-03-20,-2.52, -0.15, -7.39, 1.86, 1.70, 7.11, repro,
2009-03-21,-2.67, -2.58, -9.58, 2.03, 1.96, 7.97, repro,
2009-03-22,-2.27, -1.88, -9.79, 1.85, 1.71, 7.14, repro,
2009-03-23,-3.52, -1.68, -2.91, 1.86, 1.72, 7.18, repro,
2009-03-24,-2.36, -1.56, -2.22, 1.86, 1.72, 7.14, repro,
2009-03-25,-2.70, -0.69, -1.38, 1.86, 1.72, 7.15, repro,
2009-03-26,-5.07, -0.58, 2.32, 1.86, 1.72, 7.21, repro,
2009-03-27,-4.06, 0.29, -4.88, 1.90, 1.75, 7.40, repro,
2009-03-28,-1.66, 0.79, 2.47, 1.91, 1.77, 7.41, repro,
2009-03-29,-2.06, -1.53, 0.77, 1.94, 1.79, 7.54, repro,
2009-03-30,-1.47, -0.14, 2.70, 1.88, 1.76, 7.37, repro,
2009-03-31,-2.93, -0.99, 1.26, 1.88, 1.74, 7.34, repro,
2009-04-01,-2.67, -1.15, 0.66, 1.90, 1.80, 7.49, repro,
2009-04-02,-3.99, 0.86, -1.82, 1.89, 1.80, 7.51, repro,
2009-04-03,-4.90, -0.48, 8.16, 1.97, 1.90, 7.88, repro,
2009-04-04,-2.62, -0.78, -2.94, 1.86, 1.74, 7.30, repro,
2009-04-05,-2.83, -0.41, -7.26, 1.88, 1.75, 7.39, repro,
2009-04-06,-2.82, -0.05, -9.96, 2.02, 2.05, 8.40, repro,
2009-04-07,-2.92, 0.12, 7.15, 1.89, 1.75, 7.45, repro,
2009-04-08,-3.25, -0.21, -2.00, 1.88, 1.73, 7.39, repro,
2009-04-09,-3.28, -0.58, 2.55, 1.88, 1.74, 7.42, repro,
2009-04-10,-3.18, -0.84, -6.11, 1.91, 1.75, 7.44, repro,
2009-04-11,-1.54, -0.07, -2.73, 1.90, 1.75, 7.51, repro,
2009-04-12,-2.33, -1.75, -9.85, 1.85, 1.73, 7.34, repro,
2009-04-13,-2.77, 0.16, -1.02, 1.89, 1.78, 7.58, repro,
2009-04-14,-1.87, -0.46, 3.72, 1.89, 1.75, 7.47, repro,
2009-04-15,-2.68, -0.02, -2.16, 1.93, 1.76, 7.54, repro,
2009-04-16,-2.34, -1.50, -9.28, 1.93, 1.82, 7.68, repro,
2009-04-17,-2.68, -1.12, -6.48, 1.85, 1.72, 7.32, repro,
2009-04-18,-2.58, -0.52, -7.01, 1.85, 1.71, 7.30, repro,
2009-04-19,-2.64, 0.43, 3.26, 1.88, 1.72, 7.40, repro,
2009-04-20,-2.24, -1.05, 5.04, 2.31, 2.15, 9.02, repro,
2009-04-21,-4.01, 0.53, 4.10, 2.04, 1.83, 7.85, repro,
2009-04-22,-1.56, 0.04, 0.60, 1.88, 1.72, 7.39, repro,
2009-04-23,-2.36, -1.16, 1.99, 1.88, 1.75, 7.51, repro,
2009-04-24,-2.52, 0.96, -3.11, 1.91, 1.78, 7.65, repro,
2009-04-25,-2.95, -0.58, -2.78, 1.87, 1.73, 7.41, repro,
2009-04-26,-2.15, 0.46, -3.06, 1.88, 1.73, 7.43, repro,
2009-04-27,-1.60, 0.45, -5.62, 1.87, 1.71, 7.33, repro,
2009-04-28,-1.56, 0.04, -4.16, 1.86, 1.71, 7.35, repro,
2009-04-29,-0.55, 1.40, -9.63, 1.91, 1.73, 7.66, repro,
2009-04-30,-1.64, 1.15, -9.54, 1.94, 1.77, 7.85, repro,
2009-05-01,-1.02, 0.43, 9.45, 1.96, 1.84, 7.88, repro,
2009-05-02,-0.23, 0.95, 1.48, 1.88, 1.74, 7.47, repro,
2009-05-03,0.12, 0.10, 2.00, 1.89, 1.73, 7.48, repro,
2009-05-04,-0.11, 0.33, -6.47, 1.89, 1.76, 7.53, repro,
2009-05-05,1.06, 0.65, -0.27, 1.93, 1.77, 7.62, repro,
2009-05-06,-1.79, -0.30, -1.33, 1.93, 1.76, 7.61, repro,
2009-05-07,-0.42, 0.66, 0.93, 2.04, 1.93, 8.06, repro,
2009-05-08,-1.84, 2.39, -0.39, 2.01, 1.85, 8.00, repro,
2009-05-09,-0.98, 0.33, 2.65, 1.91, 1.75, 7.56, repro,
2009-05-10,0.16, 2.66, -11.43, 1.86, 1.73, 7.41, repro,
2009-05-11,-0.11, 1.42, -3.83, 2.21, 2.02, 8.57, repro,
2009-05-12,-1.79, -0.22, -4.83, 1.87, 1.76, 7.49, repro,
2009-05-13,0.14, 0.77, -5.49, 1.87, 1.72, 7.38, repro,
2009-05-14,-2.59, -0.57, -9.96, 1.86, 1.72, 7.38, repro,
2009-05-15,-0.89, -1.38, -5.54, 1.85, 1.71, 7.35, repro,
2009-05-16,0.59, 0.77, -16.13, 1.89, 1.79, 7.65, repro,
2009-05-17,-2.19, 0.15, -14.51, 1.86, 1.71, 7.37, repro,
2009-05-18,-1.72, 0.05, -9.69, 1.88, 1.72, 7.39, repro,
2009-05-19,-2.80, -0.36, -10.47, 1.90, 1.73, 7.42, repro,
2009-05-20,-0.76, -1.84, -10.06, 1.86, 1.71, 7.34, repro,
2009-05-21,-2.41, -0.06, -3.54, 1.84, 1.71, 7.31, repro,
2009-05-22,0.63, -0.15, -13.35, 1.88, 1.77, 7.53, repro,
2009-05-23,-1.13, 1.58, -14.50, 1.90, 1.73, 7.55, repro,
2009-05-24,-2.54, 1.82, -0.55, 1.86, 1.72, 7.35, repro,
2009-05-25,-0.66, 2.20, -4.51, 1.84, 1.70, 7.27, repro,
2009-05-26,0.22, 1.99, -6.61, 1.87, 1.72, 7.42, repro,
2009-05-27,-1.12, 0.77, -5.18, 1.85, 1.70, 7.33, repro,
2009-05-28,-0.64, 1.08, 2.04, 1.88, 1.73, 7.50, repro,
2009-05-29,-1.97, 2.47, 3.67, 2.19, 2.02, 8.74, repro,
2009-05-30,-0.94, -1.03, -8.04, 1.90, 1.72, 7.46, repro,
2009-05-31,-0.89, 2.57, -1.10, 1.87, 1.72, 7.43, repro,
2009-06-01,-1.18, 2.30, -4.56, 1.89, 1.72, 7.45, repro,
2009-06-02,0.42, -0.85, -9.32, 1.88, 1.73, 7.41, repro,
2009-06-03,-3.97, 1.93, 0.44, 1.87, 1.72, 7.39, repro,
2009-06-04,0.14, 2.32, 2.69, 1.94, 1.74, 7.54, repro,
2009-06-05,-1.37, 0.43, -7.28, 1.90, 1.71, 7.43, repro,
2009-06-06,0.08, -0.66, -2.73, 1.91, 1.73, 7.44, repro,
2009-06-07,-3.07, 1.05, -8.39, 1.92, 1.74, 7.59, repro,
2009-06-08,-1.81, 2.81, -9.33, 1.88, 1.72, 7.42, repro,
2009-06-09,-1.85, 0.82, -2.24, 1.93, 1.80, 7.69, repro,
2009-06-10,0.15, 0.52, -12.40, 1.93, 1.74, 7.54, repro,
2009-06-11,-0.84, 0.83, -2.18, 1.91, 1.76, 7.42, repro,
2009-06-12,-1.31, 1.90, -2.30, 2.04, 1.79, 7.91, repro,
2009-06-13,-1.50, 1.24, -1.17, 2.09, 1.82, 8.43, repro,
2009-06-14,1.15, 1.57, 2.20, 1.94, 1.75, 7.66, repro,
2009-06-15,-2.71, 1.21, -5.82, 1.94, 1.74, 7.50, repro,
2009-06-16,0.02, 1.68, -7.12, 1.91, 1.71, 7.35, repro,
2009-06-18,-0.38, -2.90, 10.58, 2.55, 2.50, 10.21, repro,
2009-06-19,-0.51, 1.23, -7.71, 1.93, 1.79, 7.59, repro,
2009-06-20,-1.62, 0.26, 1.49, 1.95, 1.81, 7.67, repro,
2009-06-21,0.36, 1.52, 1.29, 1.91, 1.73, 7.45, repro,
2009-06-22,-1.60, 1.50, 3.33, 1.89, 1.71, 7.33, repro,
2009-06-23,-0.45, 1.94, 1.67, 1.97, 1.83, 7.69, repro,
2009-06-24,-1.08, 2.10, 2.12, 1.95, 1.76, 7.55, repro,
2009-06-25,-0.45, 0.90, -2.40, 1.90, 1.72, 7.39, repro,
2009-06-26,-1.75, 0.46, 0.93, 2.58, 2.43, 9.84, repro,
2009-06-27,-1.08, 3.07, 3.36, 2.04, 1.81, 8.00, repro,
2009-06-28,-1.13, 2.24, 4.71, 1.95, 1.72, 7.47, repro,
2009-06-29,-0.64, 2.99, 17.01, 1.96, 1.74, 7.57, repro,
2009-06-30,-0.63, 2.87, 8.45, 1.95, 1.73, 7.55, repro,
2009-07-01,-1.54, 1.26, 5.46, 2.09, 1.88, 8.00, repro,
2009-07-02,-0.30, 1.71, 1.35, 1.97, 1.79, 7.70, repro,
2009-07-03,-0.22, 0.78, 3.05, 1.88, 1.71, 7.33, repro,
2009-07-04,-0.54, 2.41, 1.72, 1.87, 1.70, 7.33, repro,
2009-07-05,-0.55, 3.01, 11.31, 1.91, 1.72, 7.47, repro,
2009-07-06,0.41, 3.00, 3.68, 1.98, 1.87, 7.80, repro,
2009-07-07,-0.64, 2.73, 1.51, 1.89, 1.70, 7.37, repro,
2009-07-08,-1.62, 3.94, 13.28, 1.94, 1.80, 7.62, repro,
2009-07-09,0.74, -0.76, -7.10, 1.92, 1.72, 7.46, repro,
2009-07-10,-1.24, 2.64, -1.43, 1.87, 1.70, 7.35, repro,
2009-07-11,-0.87, 2.22, 1.40, 1.89, 1.71, 7.40, repro,
2009-07-12,-1.90, 0.60, -1.42, 1.90, 1.71, 7.45, repro,
2009-07-13,-0.97, 1.73, 14.48, 1.92, 1.74, 7.65, repro,
2009-07-14,-3.76, 1.25, 1.66, 1.88, 1.71, 7.41, repro,
2009-07-15,-1.65, 0.48, 1.28, 1.87, 1.71, 7.38, repro,
2009-07-16,-1.76, 0.91, 5.60, 1.98, 1.75, 7.87, repro,
2009-07-17,-2.77, 3.38, 2.42, 2.02, 1.76, 7.95, repro,
2009-07-18,0.31, 2.61, 7.79, 1.95, 1.79, 7.74, repro,
2009-07-19,-1.30, 2.97, -2.95, 1.91, 1.71, 7.49, repro,
2009-07-20,1.43, 2.13, 4.59, 2.03, 1.83, 8.04, repro,
2009-07-21,-0.13, 1.68, -4.88, 1.88, 1.70, 7.33, repro,
2009-07-22,-1.62, 0.06, -2.43, 2.28, 1.95, 8.58, repro,
2009-07-23,-0.89, 4.68, 2.91, 1.97, 1.76, 7.79, repro,
2009-07-24,-1.10, 0.73, -15.08, 2.00, 1.80, 7.89, repro,
2009-07-25,-1.37, 2.14, 9.73, 2.32, 2.02, 8.77, repro,
2009-07-26,1.26, 1.74, 8.65, 2.35, 2.55, 9.36, repro,
2009-07-27,0.59, -1.01, 4.69, 2.07, 1.87, 7.95, repro,
2009-07-28,-2.00, 3.13, 8.16, 1.89, 1.71, 7.41, repro,
2009-07-29,0.81, 0.61, 9.09, 1.91, 1.75, 7.60, repro,
2009-07-30,-3.21, 0.85, 15.33, 2.04, 1.85, 8.24, repro,
2009-07-31,0.25, 0.22, 1.36, 2.14, 1.91, 8.24, repro,
2009-08-01,1.19, 1.99, 0.20, 2.05, 1.88, 7.95, repro,
2009-08-02,0.96, 2.86, -2.83, 1.94, 1.80, 7.72, repro,
2009-08-03,-0.83, 2.09, -3.66, 1.93, 1.74, 7.55, repro,
2009-08-04,-1.96, -0.40, 10.21, 2.01, 1.79, 7.85, repro,
2009-08-05,-0.20, 1.01, -3.32, 2.04, 1.87, 8.02, repro,
2009-08-06,-0.97, 0.31, 7.18, 1.97, 1.85, 7.90, repro,
2009-08-07,-0.70, 2.67, -4.46, 1.87, 1.72, 7.38, repro,
2009-08-08,0.40, 2.94, 4.56, 1.91, 1.77, 7.56, repro,
2009-08-09,-1.73, 2.07, 8.00, 1.93, 1.77, 7.60, repro,
2009-08-10,-0.49, 3.30, 4.68, 1.92, 1.75, 7.53, repro,
2009-08-11,-0.11, 3.65, 1.17, 1.93, 1.81, 7.68, repro,
2009-08-12,-0.90, 2.58, 9.47, 2.07, 2.02, 8.34, repro,
2009-08-13,-2.05, 2.10, -3.41, 1.88, 1.75, 7.44, repro,
2009-08-14,-2.07, 2.08, 5.73, 2.04, 1.97, 8.10, repro,
2009-08-15,-1.10, 0.69, -4.32, 1.94, 1.81, 7.68, repro,
2009-08-16,-2.04, 0.70, 0.49, 1.88, 1.74, 7.38, repro,
2009-08-17,-2.31, 1.53, 5.56, 1.89, 1.77, 7.45, repro,
2009-08-18,-1.50, 3.10, 3.01, 1.90, 1.77, 7.52, repro,
2009-08-19,-1.84, 2.90, 15.98, 1.89, 1.76, 7.45, repro,
2009-08-20,-2.34, 3.62, 6.12, 1.94, 1.78, 7.68, repro,
2009-08-21,-1.63, 3.03, 3.47, 1.96, 1.79, 7.71, repro,
2009-08-22,-3.01, 3.95, 8.48, 2.04, 1.86, 8.02, repro,
2009-08-23,2.75, 2.76, 11.07, 2.00, 1.87, 7.93, repro,
2009-08-24,-1.45, 2.60, 4.02, 1.97, 1.84, 7.77, repro,
2009-08-25,-0.14, 2.02, 1.16, 2.00, 1.82, 7.80, repro,
2009-08-26,-1.15, 2.52, -4.75, 1.98, 1.82, 7.74, repro,
2009-08-27,-1.20, 2.54, -6.62, 1.96, 1.82, 7.73, repro,
2009-08-28,-2.04, 3.28, 5.97, 2.00, 1.86, 7.80, repro,